Albany, GA

7:27 AM EST on November 17, 2019 (GMT -0500)
Southwest Georgia Regional

Weather History for KABY - October, 2019

Change the Weather History Date:

Wednesday, October 23, 2019

  Actual Average Record
Temperature  
Mean Temperature 62 °F 66 °F  
Max Temperature 75 °F 79 °F 91 °F (2007)
Min Temperature 48 °F 53 °F 33 °F (1987)
Degree Days  
Heating Degree Days 4    
Month to date heating degree days 6  
Since 1 July heating degree days 6  
Cooling Degree Days 0    
Month to date cooling degree days 240  
Year to date cooling degree days 3145  
Growing Degree Days 12 (Base 50)    
Moisture  
Dew Point 40 °F    
Average Humidity 52    
Maximum Humidity 80    
Minimum Humidity 25    
Precipitation  
Precipitation 0.00 in 0.08 in 0.95 in (2017)
Month to date precipitation 3.60 1.93  
Year to date precipitation 37.58 40.97  
Sea Level Pressure  
Sea Level Pressure 30.16 in    
Wind  
Wind Speed 4 mph ()    
Max Wind Speed 18 mph    
Max Gust Speed 26 mph    
Visibility 10.0 miles    
Events      
T = Trace of Precipitation, MM = Missing Value Source: Averaged Metar Reports

Daily Weather History Graph

Daily Weather History Graph

Search for Another Location

Airport or City:

Astronomy

Oct. 23, 2019 Rise Set
Actual Time 7:45 AM EDT 6:56 PM EDT
Civil Twilight 7:20 AM EDT 7:20 PM EDT
Nautical Twilight 6:52 AM EDT 7:49 PM EDT
Astronomical Twilight 6:24 AM EDT 8:17 PM EDT
Moon 2:30 AM EDT (10/23) 4:21 PM EDT (10/23)
Length of Visible Light 12h 00m
Length of Day
11h 10m
Waning Crescent, 27% of the Moon is Illuminated
Oct 23
Waning Crescent
Oct 27
New
Nov 4
First Quarter
Nov 12
Full
Nov 19
Last Quarter

Hourly Weather History & Observations

Time (EDT) Temp. Dew Point Humidity Pressure Visibility Wind Dir Wind Speed Gust Speed Precip Events Conditions
2:53 AM 53.1 °F 41.0 °F 64% 30.11 in 10.0 mi NW 5.8 mph - N/A   Clear
3:53 AM 54.0 °F 39.9 °F 59% 30.10 in 10.0 mi NNW 3.5 mph - N/A   Clear
4:53 AM 48.9 °F 42.1 °F 77% 30.12 in 10.0 mi Calm Calm - N/A   Clear
5:53 AM 50.0 °F 42.1 °F 74% 30.14 in 10.0 mi NNW 5.8 mph - N/A   Clear
6:53 AM 51.1 °F 41.0 °F 68% 30.15 in 10.0 mi North 4.6 mph - N/A   Clear
7:53 AM 48.0 °F 42.1 °F 80% 30.16 in 10.0 mi North 4.6 mph - N/A   Clear
8:53 AM 54.0 °F 43.0 °F 66% 30.19 in 10.0 mi Calm Calm - N/A   Clear
9:53 AM 59.0 °F 41.0 °F 51% 30.20 in 10.0 mi NNE 8.1 mph - N/A   Clear
10:53 AM 64.9 °F 39.0 °F 39% 30.21 in 10.0 mi NE 11.5 mph - N/A   Clear
11:53 AM 68.0 °F 37.9 °F 33% 30.21 in 10.0 mi NE 10.4 mph - N/A   Clear
12:53 PM 69.1 °F 37.0 °F 31% 30.19 in 10.0 mi NE 11.5 mph - N/A   Clear
1:53 PM 72.0 °F 37.0 °F 28% 30.17 in 10.0 mi Variable 6.9 mph - N/A   Clear
2:53 PM 73.0 °F 35.1 °F 25% 30.15 in 10.0 mi NNE 9.2 mph - N/A   Clear
3:53 PM 73.9 °F 36.0 °F 25% 30.14 in 10.0 mi NE 5.8 mph - N/A   Clear
4:53 PM 73.9 °F 36.0 °F 25% 30.13 in 10.0 mi NNE 4.6 mph - N/A   Clear
5:53 PM 73.0 °F 36.0 °F 26% 30.14 in 10.0 mi NNE 5.8 mph - N/A   Clear
6:53 PM 66.9 °F 43.0 °F 42% 30.14 in 10.0 mi Calm Calm - N/A   Clear
7:53 PM 60.1 °F 44.1 °F 55% 30.16 in 10.0 mi Calm Calm - N/A   Clear
8:53 PM 54.0 °F 46.0 °F 75% 30.17 in 10.0 mi SE 4.6 mph - N/A   Clear
9:53 PM 54.0 °F 45.0 °F 72% 30.19 in 10.0 mi NNW 3.5 mph - N/A   Clear
10:53 PM 52.0 °F 46.0 °F 80% 30.20 in 10.0 mi Calm Calm - N/A   Clear